Location: Caltech
(34.1382°N, 118.1253°W)
Time: 16:36:55
(UTC-08:00)

ITAMSAT 1 - Visible Passes

Search period start: 21 February 2018 00:00
Search period end: 03 March 2018 00:00
Orbit: 784 x 796 km, 98.8° (Epoch: 20 February)

Date Brightness Start Highest point End Pass type
(mag) Time Alt. Az. Time Alt. Az. Time Alt. Az.
21 Feb 9.6 03:47:27 10° NNE 03:49:05 21° NNE 03:49:05 21° NNE visible
22 Feb 10.1 03:18:23 10° NNE 03:19:31 16° NE 03:19:31 16° NE visible
22 Feb 9.4 04:58:34 10° NNW 05:00:15 17° NW 05:00:15 17° NW visible
23 Feb 10.6 02:49:55 10° NE 02:49:57 10° NE 02:49:57 10° NE visible
23 Feb 9.1 04:28:25 10° N 04:30:41 24° NNW 04:30:41 24° NNW visible
24 Feb 9.2 03:58:46 10° N 04:01:07 27° N 04:01:07 27° N visible
25 Feb 9.6 03:29:31 10° NNE 03:31:33 23° NNE 03:31:33 23° NNE visible
25 Feb 9.4 05:10:23 10° NNW 05:12:18 15° NW 05:12:18 15° NW visible
26 Feb 10.3 03:00:47 10° NE 03:01:59 15° NE 03:01:59 15° NE visible
26 Feb 8.9 04:39:57 10° N 04:42:44 25° NW 04:42:44 25° NW visible
27 Feb 8.7 04:10:09 10° N 04:13:10 34° N 04:13:10 34° N visible
28 Feb 9.0 03:40:45 10° NNE 03:43:36 33° NNE 03:43:36 33° NNE visible
28 Feb 9.4 05:22:28 10° NW 05:24:21 13° WNW 05:24:21 13° WNW visible
01 Mar 9.8 03:11:48 10° NNE 03:14:02 22° NE 03:14:02 22° NE visible
01 Mar 8.9 04:51:34 10° NNW 04:54:47 23° NW 04:54:47 23° NW visible
02 Mar 10.5 02:43:36 10° NE 02:44:28 13° ENE 02:44:28 13° ENE visible
02 Mar 8.4 04:21:34 10° N 04:25:13 38° NNW 04:25:13 38° NNW visible
